SIA279 WSSS-YPAD

Flight info

Callsign SIA279
Flight time N/A
Altitude 35000
Route KIRDA1A KIRDA W26 PKP L511 BOPLO T20 BRM/N0485F370 G222 AYE T29 WR J251 OJJAY DCT BUGSU
Aircraft B77W/H-SDE1E2E3FGHIJ2J3J4J5M1RWXY/LB1D1

Departure

Time N/A
Airport Singapore Changi Airport (WSSS)

Arrival

Time 2026-05-05 17:49
Airport Adelaide International Airport (YPAD)
Time Latitude Longitude Altitude Speed Heading
2026-05-05 15:53 -17.11703 121.46775 36985 ft 520 kts 146°
2026-05-05 15:53 -17.14421 121.49275 36983 ft 520 kts 146°
2026-05-05 15:54 -17.19859 121.54280 36981 ft 521 kts 146°
2026-05-05 15:54 -17.25302 121.59294 36981 ft 521 kts 146°
2026-05-05 15:55 -17.30712 121.64281 36980 ft 522 kts 146°
2026-05-05 15:55 -17.36154 121.69304 36982 ft 522 kts 146°
2026-05-05 15:56 -17.41605 121.74337 36982 ft 522 kts 146°
2026-05-05 15:56 -17.47052 121.79371 36981 ft 522 kts 146°
2026-05-05 15:57 -17.52497 121.84408 36983 ft 522 kts 146°
2026-05-05 15:57 -17.57915 121.89423 36981 ft 522 kts 146°
2026-05-05 15:58 -17.63353 121.94461 36984 ft 522 kts 146°
2026-05-05 15:58 -17.68805 121.99518 36980 ft 522 kts 146°
2026-05-05 15:59 -17.74255 122.04575 36980 ft 523 kts 146°
2026-05-05 15:59 -17.79704 122.09637 36977 ft 523 kts 146°
2026-05-05 16:00 -17.85152 122.14703 36972 ft 523 kts 146°
2026-05-05 16:00 -17.90565 122.19740 36968 ft 523 kts 146°
2026-05-05 16:01 -17.95934 122.24883 36961 ft 528 kts 142°
2026-05-05 16:01 -18.01023 122.30495 36974 ft 530 kts 140°
2026-05-05 16:02 -18.06059 122.36169 36966 ft 530 kts 141°
2026-05-05 16:02 -18.11099 122.41815 36983 ft 530 kts 141°
2026-05-05 16:03 -18.16164 122.47454 36993 ft 530 kts 141°
2026-05-05 16:03 -18.21231 122.53089 36985 ft 530 kts 141°
2026-05-05 16:04 -18.26258 122.58689 36991 ft 530 kts 141°
2026-05-05 16:04 -18.31322 122.64337 36987 ft 531 kts 141°
2026-05-05 16:05 -18.36385 122.69990 36988 ft 531 kts 141°
2026-05-05 16:05 -18.41455 122.75655 36991 ft 531 kts 141°
2026-05-05 16:06 -18.46526 122.81327 36997 ft 532 kts 141°
2026-05-05 16:06 -18.51607 122.87016 36999 ft 532 kts 141°
2026-05-05 16:07 -18.56666 122.92685 36995 ft 532 kts 141°
2026-05-05 16:07 -18.61718 122.98353 36999 ft 532 kts 141°
2026-05-05 16:08 -18.66790 123.04046 36995 ft 532 kts 141°
2026-05-05 16:08 -18.71861 123.09745 36997 ft 533 kts 141°
2026-05-05 16:09 -18.76928 123.15445 37004 ft 533 kts 141°
2026-05-05 16:09 -18.81999 123.21155 37006 ft 533 kts 141°
2026-05-05 16:10 -18.87073 123.26874 36999 ft 534 kts 141°
2026-05-05 16:10 -18.92146 123.32597 36998 ft 534 kts 141°
2026-05-05 16:11 -18.97207 123.38358 37002 ft 534 kts 141°
2026-05-05 16:12 -19.07271 123.49936 37002 ft 534 kts 141°
2026-05-05 16:13 -19.19814 123.64368 37002 ft 534 kts 141°
2026-05-05 16:13 -19.24844 123.70163 36987 ft 534 kts 141°
2026-05-05 16:14 -19.34040 123.80774 36990 ft 534 kts 141°
2026-05-05 16:15 -19.44081 123.92383 36992 ft 534 kts 141°
2026-05-05 16:16 -19.54103 124.03992 36996 ft 533 kts 141°
2026-05-05 16:17 -19.61613 124.12706 37001 ft 533 kts 141°
2026-05-05 16:18 -19.69088 124.21392 37010 ft 533 kts 141°
2026-05-05 16:19 -19.76581 124.30112 37016 ft 533 kts 141°
2026-05-05 16:19 -19.84079 124.38851 37015 ft 533 kts 141°
2026-05-05 16:20 -19.94031 124.50471 37021 ft 533 kts 141°
2026-05-05 16:22 -20.06499 124.65064 37027 ft 533 kts 141°
2026-05-05 16:23 -20.16463 124.76751 37024 ft 533 kts 141°
2026-05-05 16:23 -20.23896 124.85485 37030 ft 532 kts 141°
2026-05-05 16:24 -20.28880 124.91349 37028 ft 533 kts 141°
2026-05-05 16:25 -20.36333 125.00130 37035 ft 533 kts 141°
2026-05-05 16:25 -20.43781 125.08919 37037 ft 532 kts 141°
2026-05-05 16:26 -20.53709 125.20653 37039 ft 533 kts 141°
2026-05-05 16:27 -20.58639 125.26491 37042 ft 533 kts 141°
2026-05-05 16:27 -20.63603 125.32375 37050 ft 533 kts 141°
2026-05-05 16:28 -20.68562 125.38259 37043 ft 533 kts 141°
2026-05-05 16:28 -20.73520 125.44148 37046 ft 533 kts 141°
2026-05-05 16:29 -20.78447 125.50007 37048 ft 533 kts 141°
2026-05-05 16:29 -20.83428 125.55929 37051 ft 541 kts 140°
2026-05-05 16:30 -20.88503 125.61978 37063 ft 547 kts 140°
2026-05-05 16:30 -20.93565 125.68020 37059 ft 548 kts 140°
2026-05-05 16:31 -20.98666 125.74079 37060 ft 547 kts 140°
2026-05-05 16:31 -21.03762 125.80131 37064 ft 547 kts 140°
2026-05-05 16:32 -21.05942 125.82722 37058 ft 546 kts 140°
2026-05-05 16:33 -21.06985 125.83964 37060 ft 546 kts 140°
2026-05-05 16:34 -21.12061 125.90012 37058 ft 545 kts 140°
2026-05-05 16:34 -21.16360 125.95139 37061 ft 545 kts 140°
2026-05-05 16:35 -21.19585 125.98989 37063 ft 544 kts 140°
2026-05-05 16:35 -21.24641 126.05030 37069 ft 544 kts 140°
2026-05-05 16:36 -21.29680 126.11057 37073 ft 545 kts 140°
2026-05-05 16:36 -21.34752 126.17129 37075 ft 546 kts 140°
2026-05-05 16:37 -21.39804 126.23185 37065 ft 546 kts 140°
2026-05-05 16:37 -21.44885 126.29284 37068 ft 547 kts 140°
2026-05-05 16:38 -21.49934 126.35350 37077 ft 548 kts 140°
2026-05-05 16:38 -21.55021 126.41469 37081 ft 548 kts 140°
2026-05-05 16:39 -21.60102 126.47588 37086 ft 549 kts 140°
2026-05-05 16:39 -21.65191 126.53724 37091 ft 550 kts 140°
2026-05-05 16:40 -21.70247 126.59827 37094 ft 550 kts 140°
2026-05-05 16:40 -21.75346 126.65988 37091 ft 550 kts 140°
2026-05-05 16:41 -21.80431 126.72140 37098 ft 550 kts 140°
2026-05-05 16:41 -21.85523 126.78309 37096 ft 551 kts 140°
2026-05-05 16:42 -21.90613 126.84481 37095 ft 551 kts 140°
2026-05-05 16:42 -21.95702 126.90659 37102 ft 551 kts 140°
2026-05-05 16:43 -22.00753 126.96797 37100 ft 551 kts 140°
2026-05-05 16:43 -22.05839 127.02987 37104 ft 551 kts 140°
2026-05-05 16:44 -22.10927 127.09186 37105 ft 551 kts 140°
2026-05-05 16:44 -22.16006 127.15381 37103 ft 551 kts 139°
2026-05-05 16:45 -22.21083 127.21582 37110 ft 551 kts 139°
2026-05-05 16:45 -22.26157 127.27786 37110 ft 551 kts 139°
2026-05-05 16:46 -22.31226 127.33990 37122 ft 551 kts 139°
2026-05-05 16:46 -22.36296 127.40204 37122 ft 551 kts 139°
2026-05-05 16:47 -22.41360 127.46417 37121 ft 551 kts 139°
2026-05-05 16:47 -22.46425 127.52640 37124 ft 551 kts 139°
2026-05-05 16:48 -22.51458 127.58830 37122 ft 551 kts 139°
2026-05-05 16:48 -22.56521 127.65065 37130 ft 551 kts 139°
2026-05-05 16:49 -22.61582 127.71305 37118 ft 551 kts 139°
2026-05-05 16:49 -22.66634 127.77542 37126 ft 551 kts 139°
2026-05-05 16:50 -22.71688 127.83789 37136 ft 551 kts 139°
2026-05-05 16:50 -22.76732 127.90031 37139 ft 550 kts 139°
2026-05-05 16:51 -22.81774 127.96278 37140 ft 550 kts 138°
2026-05-05 16:51 -22.86808 128.02521 37150 ft 550 kts 138°
2026-05-05 16:52 -22.91835 128.08766 37147 ft 549 kts 138°
2026-05-05 16:52 -22.96832 128.14980 37149 ft 549 kts 138°
2026-05-05 16:53 -23.01858 128.21238 37149 ft 549 kts 138°
2026-05-05 16:53 -23.06873 128.27490 37156 ft 549 kts 138°
2026-05-05 16:54 -23.11885 128.33746 37156 ft 548 kts 138°
2026-05-05 16:54 -23.16889 128.40001 37160 ft 548 kts 138°
2026-05-05 16:55 -23.21892 128.46262 37160 ft 548 kts 137°
2026-05-05 16:55 -23.26854 128.52480 37159 ft 547 kts 137°
2026-05-05 16:56 -23.31834 128.58732 37166 ft 547 kts 137°
2026-05-05 16:56 -23.36811 128.64989 37167 ft 546 kts 137°
2026-05-05 16:57 -23.41784 128.71250 37170 ft 546 kts 137°
2026-05-05 16:57 -23.46749 128.77508 37172 ft 546 kts 137°
2026-05-05 16:58 -23.51710 128.83769 37169 ft 546 kts 137°
2026-05-05 16:58 -23.56671 128.90037 37174 ft 545 kts 137°
2026-05-05 16:59 -23.61623 128.96303 37183 ft 545 kts 137°
2026-05-05 16:59 -23.66564 129.02562 37169 ft 545 kts 137°
2026-05-05 17:00 -23.71478 129.08796 37177 ft 544 kts 137°
2026-05-05 17:00 -23.76417 129.15067 37180 ft 544 kts 137°
2026-05-05 17:01 -23.90018 129.32382 37199 ft 544 kts 136°
2026-05-05 17:01 -24.12136 129.60660 37214 ft 543 kts 136°
2026-05-05 17:02 -24.30657 129.84486 37210 ft 542 kts 136°
2026-05-05 17:02 -24.50136 130.09660 37226 ft 540 kts 135°
2026-05-05 17:03 -24.69503 130.34821 37225 ft 538 kts 135°
2026-05-05 17:03 -24.88773 130.59988 37234 ft 537 kts 135°
2026-05-05 17:04 -25.07931 130.85145 37235 ft 535 kts 134°
2026-05-05 17:04 -25.28752 131.07966 37263 ft 522 kts 146°
2026-05-05 17:05 -25.51255 131.28356 37259 ft 521 kts 145°
2026-05-05 17:05 -25.73452 131.48659 37264 ft 520 kts 145°
2026-05-05 17:06 -25.95732 131.69140 37267 ft 520 kts 145°
2026-05-05 17:06 -26.17994 131.89707 37279 ft 520 kts 144°
2026-05-05 17:07 -26.40179 132.10311 37296 ft 519 kts 144°
2026-05-05 17:07 -26.62277 132.30941 37286 ft 517 kts 144°
2026-05-05 17:08 -26.84266 132.51576 37291 ft 515 kts 144°
2026-05-05 17:08 -27.06135 132.72231 37283 ft 512 kts 143°
2026-05-05 17:09 -27.27836 132.92862 37290 ft 510 kts 143°
2026-05-05 17:09 -27.49438 133.13507 37294 ft 508 kts 143°
2026-05-05 17:10 -27.70966 133.34190 37285 ft 507 kts 143°
2026-05-05 17:10 -27.92424 133.54918 37279 ft 507 kts 143°
2026-05-05 17:11 -28.13710 133.75591 37285 ft 507 kts 143°
2026-05-05 17:11 -28.35116 133.96495 37285 ft 509 kts 143°
2026-05-05 17:12 -28.56580 134.17571 37292 ft 510 kts 143°
2026-05-05 17:12 -28.78090 134.38813 37285 ft 512 kts 143°
2026-05-05 17:13 -28.99630 134.60207 37283 ft 514 kts 143°
2026-05-05 17:13 -29.21176 134.81756 37274 ft 514 kts 143°
2026-05-05 17:14 -29.42566 135.03275 37283 ft 515 kts 143°
2026-05-05 17:14 -29.64040 135.25005 37289 ft 514 kts 143°
2026-05-05 17:15 -29.85487 135.46836 37282 ft 514 kts 143°
2026-05-05 17:15 -30.06864 135.68727 37288 ft 513 kts 142°
2026-05-05 17:16 -30.28163 135.90669 37276 ft 512 kts 142°
2026-05-05 17:16 -30.40939 136.03894 37276 ft 512 kts 142°
2026-05-05 17:17 -30.62107 136.25915 37270 ft 510 kts 142°
2026-05-05 17:17 -30.83222 136.48016 37269 ft 509 kts 142°
2026-05-05 17:18 -31.04237 136.70150 37296 ft 508 kts 141°
2026-05-05 17:18 -31.15148 136.80443 37308 ft 499 kts 155°
2026-05-05 17:18 -31.27946 136.85934 37349 ft 489 kts 168°
2026-05-05 17:19 -31.53964 136.95378 37271 ft 490 kts 167°
2026-05-05 17:19 -31.79795 137.04945 37277 ft 489 kts 166°
2026-05-05 17:20 -32.05727 137.14604 37271 ft 488 kts 166°
2026-05-05 17:20 -32.31630 137.24310 37286 ft 488 kts 166°
2026-05-05 17:21 -32.57363 137.34647 37269 ft 489 kts 162°
2026-05-05 17:22 -32.95393 137.52117 37275 ft 488 kts 162°
2026-05-05 17:22 -33.06017 137.57000 37267 ft 488 kts 162°
2026-05-05 17:23 -33.12324 137.59904 36886 ft 494 kts 162°
2026-05-05 17:23 -33.15554 137.61391 36152 ft 498 kts 162°
2026-05-05 17:23 -33.18786 137.62882 35378 ft 497 kts 162°
2026-05-05 17:23 -33.22005 137.64370 34763 ft 494 kts 162°
2026-05-05 17:24 -33.25190 137.65845 34242 ft 489 kts 162°
2026-05-05 17:24 -33.28346 137.67308 33652 ft 484 kts 162°
2026-05-05 17:24 -33.31460 137.68751 33116 ft 478 kts 162°
2026-05-05 17:24 -33.34550 137.70184 32596 ft 473 kts 162°
2026-05-05 17:25 -33.37610 137.71602 32098 ft 468 kts 162°
2026-05-05 17:25 -33.39612 137.72531 31768 ft 465 kts 162°
2026-05-05 17:25 -33.43626 137.74394 31115 ft 459 kts 161°
2026-05-05 17:25 -33.46598 137.75774 30628 ft 456 kts 161°
2026-05-05 17:26 -33.49538 137.77141 30114 ft 452 kts 161°
2026-05-05 17:26 -33.52458 137.78500 29562 ft 448 kts 161°
2026-05-05 17:26 -33.55352 137.79847 29057 ft 444 kts 161°
2026-05-05 17:26 -33.57659 137.80923 28662 ft 441 kts 161°
2026-05-05 17:27 -33.59201 137.81642 28394 ft 440 kts 161°
2026-05-05 17:27 -33.59962 137.81996 28262 ft 440 kts 161°
2026-05-05 17:27 -33.61778 137.82843 27948 ft 441 kts 161°
2026-05-05 17:27 -33.64640 137.84177 27456 ft 442 kts 161°
2026-05-05 17:28 -33.67509 137.85516 26965 ft 442 kts 161°
2026-05-05 17:28 -33.70378 137.86856 26472 ft 443 kts 161°
2026-05-05 17:28 -33.73257 137.88202 25982 ft 444 kts 161°
2026-05-05 17:28 -33.76141 137.89552 25486 ft 445 kts 161°
2026-05-05 17:29 -33.79029 137.90905 24993 ft 446 kts 161°
2026-05-05 17:29 -33.81927 137.92264 24491 ft 447 kts 161°
2026-05-05 17:29 -33.84819 137.93621 23963 ft 439 kts 161°
2026-05-05 17:29 -33.87596 137.94930 23405 ft 418 kts 161°
2026-05-05 17:30 -33.88054 137.95146 23317 ft 416 kts 161°
2026-05-05 17:30 -33.89815 137.95975 23009 ft 417 kts 161°
2026-05-05 17:30 -33.92526 137.97248 22529 ft 419 kts 161°
2026-05-05 17:30 -33.95244 137.98524 22057 ft 420 kts 161°
2026-05-05 17:31 -33.97960 137.99802 21553 ft 413 kts 161°
2026-05-05 17:31 -34.00542 138.01021 21098 ft 395 kts 161°
2026-05-05 17:31 -34.03109 138.02231 20676 ft 397 kts 161°
2026-05-05 17:31 -34.05693 138.03447 20224 ft 400 kts 161°
2026-05-05 17:32 -34.08299 138.04675 19766 ft 403 kts 161°
2026-05-05 17:32 -34.10917 138.05910 19304 ft 405 kts 161°
2026-05-05 17:32 -34.13554 138.07155 18828 ft 408 kts 161°
2026-05-05 17:32 -34.16162 138.08389 18289 ft 393 kts 161°
2026-05-05 17:33 -34.18640 138.09566 17793 ft 373 kts 161°
2026-05-05 17:33 -34.21038 138.10704 17378 ft 371 kts 161°
2026-05-05 17:33 -34.23453 138.11846 16936 ft 375 kts 160°
2026-05-05 17:33 -34.25895 138.13001 16493 ft 378 kts 160°
2026-05-05 17:34 -34.28353 138.14165 16045 ft 382 kts 160°
2026-05-05 17:34 -34.30830 138.15340 15574 ft 377 kts 160°
2026-05-05 17:34 -34.33211 138.16474 15115 ft 358 kts 160°
2026-05-05 17:34 -34.35475 138.17553 14699 ft 345 kts 160°
2026-05-05 17:35 -34.37725 138.18622 14315 ft 350 kts 160°
2026-05-05 17:35 -34.40014 138.19709 13882 ft 357 kts 160°
2026-05-05 17:35 -34.42354 138.20821 13412 ft 362 kts 160°
2026-05-05 17:35 -34.44713 138.21944 12954 ft 367 kts 160°
2026-05-05 17:36 -34.47100 138.23082 12491 ft 367 kts 160°
2026-05-05 17:36 -34.49409 138.24186 12032 ft 347 kts 160°
2026-05-05 17:36 -34.51600 138.25234 11620 ft 332 kts 160°
2026-05-05 17:36 -34.53768 138.26269 11247 ft 338 kts 160°
2026-05-05 17:37 -34.55976 138.27322 10907 ft 343 kts 160°
2026-05-05 17:37 -34.57442 138.28022 10827 ft 340 kts 160°
2026-05-05 17:37 -34.60291 138.29387 10573 ft 313 kts 160°
2026-05-05 17:37 -34.62221 138.30313 10216 ft 294 kts 160°
2026-05-05 17:38 -34.63977 138.31156 10102 ft 274 kts 160°
2026-05-05 17:38 -34.65724 138.31992 9964 ft 266 kts 160°
2026-05-05 17:38 -34.67479 138.32830 9675 ft 275 kts 160°
2026-05-05 17:38 -34.69274 138.33689 9348 ft 275 kts 160°
2026-05-05 17:39 -34.71048 138.34540 9068 ft 274 kts 160°
2026-05-05 17:39 -34.72816 138.35388 8749 ft 272 kts 160°
2026-05-05 17:39 -34.74576 138.36233 8446 ft 271 kts 161°
2026-05-05 17:39 -34.76303 138.37063 8151 ft 269 kts 161°
2026-05-05 17:40 -34.77998 138.37989 7825 ft 266 kts 147°
2026-05-05 17:40 -34.79213 138.39662 7539 ft 267 kts 116°
2026-05-05 17:40 -34.79641 138.41848 7251 ft 264 kts 91°
2026-05-05 17:40 -34.79602 138.44075 6991 ft 263 kts 89°
2026-05-05 17:41 -34.79537 138.46321 6705 ft 269 kts 89°
2026-05-05 17:41 -34.79470 138.48593 6475 ft 265 kts 89°
2026-05-05 17:41 -34.79407 138.50797 5984 ft 256 kts 89°
2026-05-05 17:41 -34.79352 138.52898 5500 ft 248 kts 89°
2026-05-05 17:42 -34.79299 138.55001 5196 ft 247 kts 90°
2026-05-05 17:42 -34.79248 138.57073 4986 ft 243 kts 90°
2026-05-05 17:42 -34.79198 138.59071 4958 ft 229 kts 90°
2026-05-05 17:42 -34.79157 138.61002 4764 ft 229 kts 91°
2026-05-05 17:43 -34.79146 138.62922 4537 ft 226 kts 91°
2026-05-05 17:43 -34.79137 138.64819 4378 ft 222 kts 91°
2026-05-05 17:43 -34.79127 138.66693 4278 ft 225 kts 91°
2026-05-05 17:43 -34.79197 138.68572 4141 ft 219 kts 106°
2026-05-05 17:44 -34.79969 138.70110 3926 ft 212 kts 145°
2026-05-05 17:44 -34.81235 138.70815 3874 ft 192 kts 164°
2026-05-05 17:44 -34.82511 138.70995 3789 ft 181 kts 198°
2026-05-05 17:44 -34.83500 138.70150 3808 ft 177 kts 237°
2026-05-05 17:45 -34.84139 138.68850 3778 ft 186 kts 236°
2026-05-05 17:45 -34.84984 138.67600 3219 ft 194 kts 227°
2026-05-05 17:45 -34.85895 138.66414 2690 ft 188 kts 231°
2026-05-05 17:45 -34.86644 138.65187 2292 ft 170 kts 235°
2026-05-05 17:46 -34.87368 138.64081 2126 ft 166 kts 232°
2026-05-05 17:46 -34.88079 138.63043 1864 ft 153 kts 232°
2026-05-05 17:46 -34.88733 138.62091 1664 ft 139 kts 232°
2026-05-05 17:46 -34.89350 138.61192 1516 ft 140 kts 232°
2026-05-05 17:47 -34.89985 138.60265 1299 ft 143 kts 231°
2026-05-05 17:47 -34.90628 138.59328 1090 ft 145 kts 231°
2026-05-05 17:47 -34.91281 138.58376 887 ft 146 kts 230°
2026-05-05 17:47 -34.91933 138.57423 686 ft 147 kts 230°
2026-05-05 17:48 -34.92587 138.56465 495 ft 146 kts 228°
2026-05-05 17:48 -34.93243 138.55517 350 ft 147 kts 228°
2026-05-05 17:48 -34.93898 138.54564 116 ft 149 kts 228°
2026-05-05 17:48 -34.94540 138.53636 31 ft 130 kts 230°
2026-05-05 17:49 -34.95020 138.52935 31 ft 85 kts 230°
2026-05-05 17:49 -34.95220 138.52643 31 ft 8 kts 230°
2026-05-05 17:49 -34.95245 138.52576 31 ft 9 kts 272°
2026-05-05 17:49 -34.95201 138.52518 31 ft 10 kts 322°
2026-05-05 17:50 -34.95145 138.52469 31 ft 10 kts 331°
2026-05-05 17:50 -34.95093 138.52451 31 ft 17 kts 353°
2026-05-05 17:50 -34.94926 138.52549 31 ft 32 kts 37°
2026-05-05 17:50 -34.94699 138.52765 31 ft 30 kts 38°
2026-05-05 17:51 -34.94547 138.52908 31 ft 21 kts 37°
2026-05-05 17:51 -34.94453 138.53007 31 ft 17 kts 59°
2026-05-05 17:51 -34.94453 138.53102 31 ft 17 kts 115°
2026-05-05 17:51 -34.94519 138.53280 31 ft 17 kts 91°
2026-05-05 17:52 -34.94487 138.53368 31 ft 17 kts 52°
2026-05-05 17:52 -34.94408 138.53484 31 ft 22 kts 50°
2026-05-05 17:52 -34.94261 138.53698 31 ft 28 kts 50°
2026-05-05 17:52 -34.94167 138.53836 31 ft 18 kts 50°
2026-05-05 17:53 -34.94113 138.53902 31 ft 9 kts 25°
2026-05-05 17:53 -34.94053 138.53884 31 ft 9 kts 352°
2026-05-05 17:53 -34.93999 138.53915 31 ft 4 kts 46°
2026-05-05 17:53 -34.93979 138.53940 31 ft 4 kts 44°
2026-05-05 17:54 -34.93962 138.53949 31 ft 5 kts 13°
2026-05-05 17:54 -34.93930 138.53934 31 ft 6 kts 330°
2026-05-05 17:54 -34.93905 138.53913 31 ft 3 kts 324°
2026-05-05 17:54 -34.93893 138.53902 31 ft 1 kts 322°
2026-05-05 17:55 -34.93888 138.53897 30 ft 0 kts 322°